Regional Weather Roundup
Issued by NWS

Home | Current Version | Previous Version | Graphics & Text | Print | Product List | Glossary On
Versions: 1 2 3 4 5 6 7 8 9 10 11 12 13 14 15 16 17 18 19 20 21 22 23 24 25 26 27 28 29 30 31 32 33 34 35 36 37 38 39 40 41 42 43 44 45 46 47 48 49 50
000
ASUS43 KMKX 192300
RWRWI

WISCONSIN REGIONAL WEATHER ROUNDUP
NATIONAL WEATHER SERVICE MILWAUKEE/SULLIVAN WI
500 PM CST FRI DEC 19 2014

NOTE: "FAIR" INDICATES FEW OR NO CLOUDS BELOW 12,000 FEET WITH NO
SIGNIFICANT WEATHER AND/OR OBSTRUCTIONS TO VISIBILITY.

WIZ001-002-006>008-014>016-023>028-200000-
NORTHWEST WISCONSIN

CITY           SKY/WX    TMP DP  RH WIND       PRES   REMARKS
SUPERIOR ARPT  CLOUDY    27  23  83 CALM      30.22R
ASHLAND        CLOUDY    25  21  85 CALM      30.24R
HAYWARD        CLOUDY    25  20  81 SE7       30.20S WCI  17
SIREN          CLOUDY    27  21  79 S7        30.20S WCI  19
CUMBERLAND     CLOUDY    27  19  74 SE8       30.20S WCI  18
RICE LAKE      CLOUDY    27  21  79 SE8       30.23R WCI  18
CHETEK         CLOUDY    26  21  82 SE7       30.22S WCI  18
LADYSMITH      CLOUDY    25  22  87 SE5       30.23S WCI  20
EAU CLAIRE     NOT AVBL
MENOMONIE      CLOUDY    28  21  75 SE5       30.24R WCI  23
NEW RICHMOND   CLOUDY    27  24  89 SE8       30.21R WCI  18
OSCEOLA        CLOUDY    28  24  86 SE8       30.23R WCI  19
$$

WIZ003>005-009-010-017-018-200000-
NORTH CENTRAL WISCONSIN

CITY           SKY/WX    TMP DP  RH WIND       PRES   REMARKS
MANITOWISH WTR CLOUDY    22  18  84 CALM      30.20S
ARBOR VITAE    CLOUDY    23  18  81 CALM      30.20S
WOODRUFF       CLOUDY    23  18  81 CALM      30.20S
RHINELANDER    MOCLDY    19  14  81 SW3       30.21R
EAGLE RIVER    CLEAR     21  17  83 CALM      30.20S
LAND O LAKES   CLOUDY    22  19  88 CALM      30.20S
PHILLIPS       CLOUDY    22  20  91 S8        30.21R WCI  13
TOMAHAWK       CLOUDY    21  17  84 CALM      30.22R
MEDFORD        CLOUDY    22  20  93 S5        30.22R WCI  16
MERRILL        CLOUDY    24  18  78 SW3       30.23R
$$

WIZ029-030-035-036-043>047-200000-
CENTRAL WISCONSIN

CITY           SKY/WX    TMP DP  RH WIND       PRES   REMARKS
WAUSAU         PTCLDY    23  17  78 SW6       30.23R WCI  16
MOSINEE        PTCLDY    21  19  93 SW5       30.26R WCI  15
MARSHFIELD     CLOUDY    24  20  84 S6        30.25R WCI  17
STEVENS POINT  PTCLDY    22  17  79 SW5       30.27R WCI  16
WAUPACA        CLEAR     28  19  69 S5        30.28R WCI  23
WAUTOMA        NOT AVBL
WISC RAPIDS    CLOUDY    24  19  81 SW7       30.29R WCI  16
CAMP DOUGLAS   CLOUDY    27  25  93 SE5       30.28R WCI  21
$$

WIZ011>013-019>022-031-037>040-048>050-200000-
NORTHEAST WISCONSIN

CITY           SKY/WX    TMP DP  RH WIND       PRES   REMARKS
ANTIGO         CLEAR     22  17  79 S3        30.21S
SHAWANO        CLEAR     29  19  66 CALM      30.27S
OCONTO         CLEAR     26  22  86 CALM      30.29R
STURGEON BAY   CLEAR     25  19  80 CALM      30.30R
GREEN BAY      CLEAR     28  20  71 CALM      30.29R
MANITOWOC      NOT AVBL
APPLETON       PTCLDY    27  18  69 VRB5      30.27R WCI  21
CLINTONVILLE   CLEAR     28  19  69 CALM      30.27R
OSHKOSH        CLOUDY    27  18  69 CALM      30.29R
$$

WIZ032>034-041-042-053>061-200000-
SOUTHWEST WISCONSIN

CITY           SKY/WX    TMP DP  RH WIND       PRES   REMARKS
LA CROSSE      CLOUDY    30  20  66 S8        30.28R WCI  22
SPARTA         CLOUDY    29  20  68 S5        30.28R WCI  24
VIROQUA        CLOUDY    28  22  78 S6        30.25R WCI  21
BOSCOBEL       CLOUDY    31  20  63 S3        30.30R
PRAIRIE DU CHI CLOUDY    29  20  68 CALM      30.30R
PLATTEVILLE    CLOUDY    29  22  75 CALM      30.29S
$$

WIZ056-057-062-063-064-067-068-200000-
SOUTH CENTRAL WISCONSIN

CITY           SKY/WX    TMP DP  RH WIND       PRES   REMARKS
REEDSBURG      CLOUDY    26  20  80 CALM      30.29R
BARABOO/DELLS  CLOUDY    25  20  83 CALM      30.29R
LONE ROCK      NOT AVBL
MINERAL POINT  CLOUDY    30  23  74 S3        30.27S
MADISON        CLOUDY    27  21  78 CALM      30.30R
MIDDLETON      CLOUDY    28  21  76 CALM      30.30R
WATERTOWN      CLOUDY    27  19  72 SW5       30.30R WCI  22
MONROE         CLOUDY    28  23  80 S6        30.29R WCI  22
JANESVILLE     CLOUDY    28  21  74 CALM      30.31R
$$

WIZ051-052-058>065-066-070>072-200000-
SOUTHEAST WISCONSIN

CITY           SKY/WX    TMP DP  RH WIND       PRES   REMARKS
MILWAUKEE      CLOUDY    30  18  60 SW8       30.31R WCI  22
WAUKESHA       CLOUDY    28  18  64 MISG      30.30R
MILWAUKEE/TIMM NOT AVBL
RACINE         CLOUDY    29  20  69 SW6       30.33R WCI  23
BURLINGTON     CLOUDY    26  19  72 SW7       30.31R WCI  19
KENOSHA        CLOUDY    29  20  69 SW9       30.31R WCI  20
FOND DU LAC    CLOUDY    28  19  69 SW6       30.30R WCI  22
SHEBOYGAN      CLOUDY    29  22  75 W5        30.29R WCI  24
WEST BEND      CLOUDY    30  21  69 CALM      30.28R
JUNEAU         CLOUDY    27  19  72 SW7       30.30R WCI  19
$$

LSZ147-162-200000-
LAKE SUPERIOR

STATION/POSITION TIME  TEMP    WIND        PRES    WAVE
                       AIR SEA DIR/SP/G            HT/PER
                 (UTC) (F)     (DEG/KT/KT) (MB)    (FT/S)
DEVILS ISLAND    2200   25     200/  5/  7 1025.1S
PORT WING        2200   26     120/  1/  3 1023.7
SAXON HARBOR     2240   26        CALM     1024.0R
$$

LMZ867-665-643>646-200000-
LAKE MICHIGAN

STATION/POSITION TIME  TEMP    WIND        PRES    WAVE
                       AIR SEA DIR/SP/G            HT/PER
                 (UTC) (F)     (DEG/KT/KT) (MB)    (FT/S)
CHAMBERS ISLAND  2200   27        CALM     1025.4S
NORTHPORT PIER   2222   27     240/  2/  6   N/A
ALGOMA LAKESHORE 2114          250/  7/  8   N/A
KEWAUNEE LAKESHO 2200   29     310/  2/  5 1024.3R
SHEBOYGAN LAKESH 2200   31 33  330/  5/  5 1026.1R
PORT WASHINGTON  2200   31     340/  2/  5 1025.7
MILWAUKEE LAKESH 2200   32     250/  2/  2   N/A
KENOSHA   LAKESH 2200   30     230/  4/  7 1025.7R
$$

TC  - TEMPERATURE IN CELSIUS
VSB - VISIBILITY IN STATUTE MILES
WCI - WIND CHILL INDEX
HX  - HEAT INDEX




USA.gov is the U.S. government's official web portal to all federal, state and local government web resources and services.